Flag for India

Past Weather in 22°35'53"N, 88°22'37"E, India — Yesterday and Last 2 Weeks

Now
77 °F

Scattered clouds.


Feels Like: 78 °F
Forecast: 89 / 75 °F
Wind: 9 mph from Northwest

Location: Calcutta / Dum Dum
Current Time: Oct 24, 2020 at 8:33:25 am
Latest Report: Oct 24, 2020 at 8:00 am
Visibility: 3 mi
Pressure29.71 "Hg
Humidity: 94%
Dew Point: 75 °F
Location of 22°35'53"N, 88°22'37"ELocation

Past Weather in 22°35'53"N, 88°22'37"E — Graph

°F

22°35'53"N, 88°22'37"E Temperature Yesterday

Maximum temperature yesterday: 81 °F (at 12:30 pm)
Minimum temperature yesterday: 73 °F (at 2:00 am)
Average temperature yesterday: 76 °F

High & Low Weather Summary for the Past Weeks

 TemperatureHumidityPressure
High97 °F (Oct 11, 11:30 am)100% (Oct 9, 3:30 pm)29.80 "Hg (Oct 9, 3:30 pm)
Low73 °F (Oct 23, 2:00 am)59% (Oct 20, 12:30 pm)29.53 "Hg (Oct 23, 12:30 pm)
Average85 °F86%29.68 "Hg
* Reported Oct 9 7:30 am — Oct 24 7:30 am, 22°35'53"N, 88°22'37"E. Weather by CustomWeather, © 2020

Note: Actual official high and low records may vary slightly from our data, if they occured in-between our weather recording intervals... More about our weather records

22°35'53"N, 88°22'37"E Weather History for the Previous 24 Hours

Scroll right to see more
 ConditionsComfort  
Time TempWeatherWind HumidityBarometerVisibility
7:30 am
Sat, Oct 24
77 °FScattered clouds.7 mph94%29.71 "Hg2 mi
7:00 am75 °FScattered clouds.6 mph94%29.68 "Hg2 mi
6:30 am75 °FPartly sunny.7 mph94%29.68 "Hg2 mi
6:00 am75 °FPassing clouds.7 mph94%29.65 "Hg2 mi
5:30 am75 °FPassing clouds.7 mph94%29.65 "Hg2 mi
5:00 am75 °FPartly cloudy.7 mph94%29.65 "Hg2 mi
4:30 am75 °FPartly cloudy.9 mph94%29.62 "Hg2 mi
4:00 am75 °FPartly cloudy.9 mph94%29.62 "Hg2 mi
3:00 am75 °FPartly cloudy.6 mph94%29.62 "Hg2 mi
2:30 am75 °FPartly cloudy.7 mph94%29.62 "Hg2 mi
2:00 am75 °FPartly cloudy.8 mph94%29.62 "Hg2 mi
1:30 am75 °FPartly cloudy.6 mph94%29.62 "Hg2 mi
1:00 am75 °FPartly cloudy.6 mph94%29.62 "Hg2 mi
12:30 am75 °FPartly cloudy.6 mph94%29.65 "Hg2 mi
12:00 am75 °FPartly cloudy.5 mph94%29.65 "Hg2 mi
11:30 pm
Fri, Oct 23
75 °FPartly cloudy.8 mph94%29.62 "Hg2 mi
11:00 pm75 °FPartly cloudy.8 mph94%29.62 "Hg2 mi
10:30 pm75 °FPartly cloudy.6 mph94%29.65 "Hg2 mi
10:00 pm75 °FPassing clouds.5 mph94%29.65 "Hg2 mi
9:30 pm75 °FPartly cloudy.6 mph94%29.65 "Hg2 mi
9:00 pm75 °FPartly cloudy.5 mph94%29.65 "Hg2 mi
8:30 pm75 °FPartly cloudy.6 mph94%29.62 "Hg2 mi
8:00 pm75 °FPartly cloudy.7 mph94%29.62 "Hg2 mi
7:30 pm75 °FPartly cloudy.6 mph94%29.62 "Hg2 mi
7:00 pm75 °FPartly cloudy.7 mph94%29.59 "Hg2 mi
6:30 pm75 °FPartly cloudy.8 mph94%29.59 "Hg2 mi
6:00 pm75 °FDrizzle. Mostly cloudy.9 mph94%29.59 "Hg2 mi
5:30 pm75 °FDrizzle. More clouds than sun.9 mph94%29.56 "Hg2 mi
5:00 pm79 °FDrizzle. More clouds than sun.10 mph94%29.56 "Hg2 mi
4:30 pm79 °FDrizzle. More clouds than sun.12 mph94%29.53 "Hg2 mi
4:00 pm79 °FDrizzle. More clouds than sun.12 mph89%29.53 "Hg2 mi
3:30 pm77 °FDrizzle. More clouds than sun.10 mph94%29.53 "Hg2 mi
3:00 pm77 °FLight rain. More clouds than sun.10 mph94%29.53 "Hg2 mi
2:00 pm77 °FLight rain. Broken clouds.10 mph94%29.53 "Hg2 mi
1:30 pm77 °FLight rain. Broken clouds.9 mph94%29.53 "Hg2 mi
1:00 pm81 °FBroken clouds.12 mph89%29.53 "Hg2 mi
12:30 pm81 °FBroken clouds.12 mph89%29.53 "Hg2 mi
12:00 pm79 °FBroken clouds.12 mph94%29.56 "Hg2 mi
11:30 am77 °FBroken clouds.12 mph94%29.56 "Hg2 mi
11:00 am77 °FBroken clouds.10 mph94%29.59 "Hg2 mi
10:30 am77 °FBroken clouds.12 mph94%29.59 "Hg2 mi
10:00 am77 °FBroken clouds.12 mph94%29.59 "Hg2 mi
9:30 am75 °FBroken clouds.10 mph94%29.62 "Hg2 mi
9:00 am75 °FLight rain. More clouds than sun.10 mph94%29.62 "Hg2 mi
8:30 am75 °FLight rain. More clouds than sun.10 mph94%29.59 "Hg2 mi
8:00 am75 °FLight rain. More clouds than sun.10 mph94%29.59 "Hg2 mi
Weather by CustomWeather, © 2020

See weather overview